Weather History for Cincinnati, OH

Change the Weather History Date:

Tuesday, April 9, 2013

  Actual Average Record
Temperature  
Mean Temperature 66 °F -  
Max Temperature 81 °F 60 °F 85 °F (1967)
Min Temperature 50 °F 39 °F 22 °F (1972)
Growing Degree Days 16 (Base 50)    
Moisture  
Dew Point 54 °F    
Average Humidity 69    
Maximum Humidity 100    
Minimum Humidity 40    
Precipitation  
Precipitation 0.00 in - - ()
Sea Level Pressure  
Sea Level Pressure 30.00 in    
Wind  
Wind Speed 6 mph (SSW)    
Max Wind Speed 23 mph    
Max Gust Speed 33 mph    
Visibility 10 miles    
Events      
Averages and records for this station are not official NWS values.
T = Trace of Precipitation, MM = Missing Value Source: NWS Daily Summary

Daily Weather History Graph

Daily Weather History Graph

Search for Another Location

Airport:

Trip Planner

Search our weather history database for the weather conditions in past years. The results will help you decide how hot, cold, wet, or windy it might be!

Date:

Astronomy

Apr. 09, 2013 Rise Set
Actual Time 7:09 AM EDT 8:09 PM EDT
Civil Twilight 6:42 AM EDT 8:36 PM EDT
Nautical Twilight 6:09 AM EDT 9:09 PM EDT
Astronomical Twilight 5:36 AM EDT 9:43 PM EDT
Moon 6:31 AM EDT (4/9) 7:44 PM EDT (4/9)
Length of Visible Light 13h 54m
Length of Day
12h 59m
Waning Crescent, 1% of the Moon is Illuminated
Apr 9
Waning Crescent
Apr 10
New
Apr 18
First Quarter
Apr 25
Full
May 2
Last Quarter

Hourly Weather History & Observations

Time (EDT) Temp. Heat Index Dew Point Humidity Pressure Visibility Wind Dir Wind Speed Gust Speed Precip Events Conditions
12:53 AM 54.0 °F - 52.0 °F 93% 30.01 in 10.0 mi SW 4.6 mph - N/A   Clear
1:53 AM 55.9 °F - 52.0 °F 87% 30.02 in 10.0 mi Calm Calm - N/A   Clear
2:53 AM 52.0 °F - 51.1 °F 97% 30.01 in 10.0 mi SSW 3.5 mph - N/A   Clear
3:53 AM 53.1 °F - 51.1 °F 93% 30.02 in 10.0 mi Calm Calm - N/A   Clear
4:53 AM 50.0 °F - 50.0 °F 100% 30.02 in 6.0 mi Calm Calm - N/A   Clear
5:53 AM 51.1 °F - 50.0 °F 96% 30.04 in 8.0 mi Calm Calm - N/A   Partly Cloudy
6:53 AM 51.1 °F - 50.0 °F 96% 30.05 in 8.0 mi Calm Calm - N/A   Mostly Cloudy
7:53 AM 52.0 °F - 51.1 °F 97% 30.06 in 9.0 mi Calm Calm - N/A   Overcast
8:53 AM 55.0 °F - 52.0 °F 89% 30.06 in 10.0 mi Calm Calm - N/A   Overcast
9:53 AM 60.1 °F - 54.0 °F 80% 30.06 in 10.0 mi Calm Calm - N/A   Overcast
10:53 AM 68.0 °F - 55.9 °F 65% 30.06 in 10.0 mi Variable 4.6 mph - N/A   Mostly Cloudy
11:53 AM 77.0 °F - 57.9 °F 52% 30.03 in 10.0 mi SW 12.7 mph - N/A   Clear
12:53 PM 79.0 °F - 57.9 °F 48% 30.00 in 10.0 mi SSW 19.6 mph 26.5 mph N/A   Partly Cloudy
1:53 PM 80.1 °F 80.4 °F 57.0 °F 45% 29.99 in 10.0 mi SW 16.1 mph 32.2 mph N/A   Scattered Clouds
2:53 PM 79.0 °F - 55.9 °F 45% 29.97 in 10.0 mi SSW 23.0 mph 33.4 mph N/A   Scattered Clouds
3:53 PM 81.0 °F 80.8 °F 55.9 °F 42% 29.94 in 10.0 mi SSW 18.4 mph 29.9 mph N/A   Clear
4:53 PM 80.1 °F 80.1 °F 55.0 °F 42% 29.93 in 10.0 mi South 18.4 mph 27.6 mph N/A   Clear
5:53 PM 80.1 °F 80.0 °F 54.0 °F 40% 29.94 in 10.0 mi SW 20.7 mph 27.6 mph N/A   Clear
6:53 PM 78.1 °F - 55.0 °F 45% 29.94 in 10.0 mi SW 16.1 mph 24.2 mph N/A   Clear
7:53 PM 75.9 °F - 55.9 °F 50% 29.94 in 10.0 mi SSW 16.1 mph 21.9 mph N/A   Clear
8:53 PM 73.0 °F - 55.9 °F 55% 29.94 in 10.0 mi SSW 9.2 mph - N/A   Clear
9:53 PM 70.0 °F - 57.0 °F 63% 29.96 in 10.0 mi SSW 10.4 mph - N/A   Clear
10:53 PM 71.1 °F - 57.9 °F 63% 29.97 in 10.0 mi SSW 11.5 mph - N/A   Clear
11:53 PM 70.0 °F - 57.0 °F 63% 29.97 in 10.0 mi SSW 9.2 mph - N/A   Clear